| time (UTC) | temp F | wind direction | speed knots | gust knots | rain 1hr in | rain 24hr in | rain mn in | humidity % | barometer mb |
| 20260508032140 | 45 | 70 | 6.1 | 0.0 | 0.00 | 0.00 | 0.00 | 93 | |
| 20260508022122 | 46 | 300 | 6.1 | 0.0 | 0.00 | 0.00 | 0.00 | 93 | |
| 20260508012239 | 46 | 50 | 4.3 | 0.0 | 0.00 | 0.00 | 0.00 | 93 | |
| 20260508002139 | 46 | 30 | 7.8 | 0.0 | 0.00 | 0.00 | 0.00 | 93 | |
| 20260507232139 | 46 | 30 | 10.4 | 0.0 | 0.00 | 0.00 | 0.00 | 93 | |
| 20260507222440 | 46 | 40 | 10.4 | 0.0 | 0.00 | 0.00 | 0.00 | 99 | |
| 20260507212141 | 48 | 60 | 7.8 | 0.0 | 0.00 | 0.00 | 0.00 | 93 | |
| 20260507202141 | 50 | 20 | 7.8 | 0.0 | 0.00 | 0.00 | 0.00 | 93 | |
| 20260507192243 | 50 | 40 | 10.4 | 0.0 | 0.00 | 0.00 | 0.00 | 93 | |
| 20260507182140 | 52 | 40 | 4.3 | 0.0 | 0.00 | 0.00 | 0.00 | 81 | |
| 20260507172140 | 55 | 360 | 4.3 | 0.0 | 0.00 | 0.00 | 0.00 | 76 | |
| 20260507162441 | 57 | 240 | 4.3 | 0.0 | 0.00 | 0.00 | 0.00 | 67 | |
| 20260507152141 | 59 | 190 | 7.8 | 0.0 | 0.00 | 0.00 | 0.00 | 54 | |
| 20260507142141 | 61 | 170 | 7.8 | 0.0 | 0.00 | 0.00 | 0.00 | 55 | |
| 20260507132242 | 59 | 230 | 10.4 | 0.0 | 0.00 | 0.00 | 0.00 | 58 | |
| 20260507122140 | 59 | 210 | 7.8 | 0.0 | 0.00 | 0.00 | 0.00 | 58 | |
| 20260507112156 | 59 | 240 | 10.4 | 0.0 | 0.00 | 0.00 | 0.00 | 58 | |
| 20260507102340 | 57 | 250 | 7.8 | 0.0 | 0.00 | 0.00 | 0.00 | 67 | |
| 20260507092140 | 57 | 260 | 7.8 | 0.0 | 0.00 | 0.00 | 0.00 | 71 | |
| 20260507082139 | 55 | 240 | 7.8 | 0.0 | 0.00 | 0.00 | 0.00 | 76 | |
| 20260507072140 | 54 | 240 | 7.8 | 0.0 | 0.00 | 0.00 | 0.00 | 81 | |
| 20260507062139 | 50 | 240 | 7.8 | 0.0 | 0.00 | 0.00 | 0.00 | 93 | |
| 20260507052139 | 50 | 230 | 6.1 | 0.0 | 0.00 | 0.00 | 0.00 | 93 | |
| 20260507042341 | 50 | 220 | 10.4 | 0.0 | 0.00 | 0.00 | 0.00 | 93 |